Lammy — PBRE — position and weather

sailwx.info

Track history (hours):
 
Tides and Currents Weather Stations Pressure Air Temp Water Temp Dewpoint Dewpoint Depression Visibility Wind Speed Wind Dir Waves Ship Positions

Lammy

Last reported at 2014-Jul-22 21:33 UTC. Time now 2014-Jul-23 01:14 UTC.
Position N 58°59' E 019°32'.

Length 95 m; draft 5.9 m.

Type: Cargo ship. MMSI: 245391000.

Date/timePositionNaut miles runAvg speedWind from/ knotsBaromVisibWave heightAir tempDewpointWater temp
2014-Jul-22 21:33N 58°59' E 019°32'3112.4
2014-Jul-22 19:04N 58°33' E 019°01'612.1
2014-Jul-22 18:33N 58°28' E 018°55'2512.2
2014-Jul-22 16:30N 58°06' E 018°31'1212.1
2014-Jul-22 15:33N 57°56' E 018°20'1212.1
2014-Jul-22 14:33N 57°46' E 018°08'1211.9
2014-Jul-22 13:33N 57°36' E 017°57'1211.9
2014-Jul-22 12:34N 57°25' E 017°46'1212.1
2014-Jul-22 11:33N 57°14' E 017°37'1212.2
2014-Jul-22 10:33N 57°03' E 017°28'1212.5
2014-Jul-22 09:33N 56°52' E 017°18'1212.5
2014-Jul-22 08:33N 56°40' E 017°09'1412.3
2014-Jul-22 07:27N 56°28' E 016°60'1212.1
2014-Jul-22 06:29N 56°17' E 016°53'1111.9
2014-Jul-22 05:33N 56°06' E 016°48'1111.6
2014-Jul-22 04:33N 55°59' E 016°31'1211.6
2014-Jul-22 03:33N 55°53' E 016°14'1211.4
2014-Jul-22 02:31N 55°48' E 015°55'1111.3
2014-Jul-22 01:33N 55°42' E 015°38'1211.6
2014-Jul-22 00:33N 55°36' E 015°21'1211.6
2014-Jul-21 23:33N 55°30' E 015°03'1211.8
2014-Jul-21 22:33N 55°24' E 014°45'1211.7
2014-Jul-21 21:33N 55°16' E 014°30'1211.8
2014-Jul-21 20:33N 55°08' E 014°16'312.1
2014-Jul-21 20:18N 55°05' E 014°13'911.9
2014-Jul-21 19:33N 55°00' E 013°60'1411.7
2014-Jul-21 18:22N 54°55' E 013°38'1011.7
2014-Jul-21 17:32N 54°51' E 013°22'1111.2
2014-Jul-21 16:33N 54°46' E 013°05'1111.3
2014-Jul-21 15:33N 54°41' E 012°47'1111.3
2014-Jul-21 14:33N 54°35' E 012°30'1110.8
2014-Jul-21 13:33N 54°29' E 012°15'10 9.7
2014-Jul-21 12:33N 54°25' E 012°00'1110.5
2014-Jul-21 11:33N 54°26' E 011°42'1110.7
2014-Jul-21 10:33N 54°30' E 011°25'1010.2
2014-Jul-21 09:33N 54°34' E 011°09'1111.3
2014-Jul-21 08:34N 54°33' E 010°49'47 7.5
2014-Jul-21 02:21N 54°14' E 009°36'10 8.5
2014-Jul-21 01:09N 54°09' E 009°21'6 8.5
2014-Jul-21 00:28N 54°03' E 009°18'7 7.8
2014-Jul-20 23:33N 53°56' E 009°13'4 4.0
2014-Jul-20 22:33N 53°54' E 009°09'1 1.3
2014-Jul-20 21:32N 53°53' E 009°07'9 9.3
2014-Jul-20 20:33N 53°50' E 008°52'1111.0
2014-Jul-20 19:33N 53°57' E 008°37'1211.5
2014-Jul-20 18:33N 53°59' E 008°18'6613.1
2014-Jul-20 13:31N 53°45' E 006°29'1313.6
2014-Jul-20 12:33N 53°41' E 006°07'1313.5
2014-Jul-20 11:34N 53°37' E 005°46'1313.4
2014-Jul-20 10:33N 53°33' E 005°24'1313.2
2014-Jul-20 09:34N 53°29' E 005°03'2511.8
2014-Jul-20 07:25N 53°11' E 004°33'2311.8
2014-Jul-20 05:25N 52°51' E 004°13'1011.4
2014-Jul-20 04:31N 52°43' E 004°02'7111.5
2014-Jul-19 22:23N 51°50' E 002°44'2413.3
2014-Jul-19 20:33N 51°31' E 002°20'1313.5
2014-Jul-19 19:34N 51°20' E 002°09'1414.0
2014-Jul-19 18:33N 51°09' E 001°54'1514.8
2014-Jul-19 17:33N 50°59' E 001°37'3413.9
2014-Jul-19 15:06N 50°34' E 001°01'713.2
2014-Jul-19 14:34N 50°31' E 000°50'1713.9
2014-Jul-19 13:19N 50°26' E 000°24'80 2.0
2014-Jul-17 20:32N 50°24' W 001°41'1313.3
2014-Jul-17 19:34N 50°25' W 001°21'5814.4
2014-Jul-17 15:32N 50°35' E 000°09'1212.7
2014-Jul-17 14:33N 50°38' E 000°28'1211.8
2014-Jul-17 13:33N 50°43' E 000°44'1212.2
2014-Jul-17 12:33N 50°50' E 000°60'1914.4
2014-Jul-17 11:14N 51°03' E 001°23'1116.8
2014-Jul-17 10:33N 51°11' E 001°35'1515.2
2014-Jul-17 09:34N 51°25' E 001°43'1313.2
2014-Jul-17 08:33N 51°39' E 001°45'1212.0
2014-Jul-17 07:33N 51°51' E 001°44'1110.8
2014-Jul-17 06:33N 52°01' E 001°47'1010.3
2014-Jul-17 05:33N 52°11' E 001°49'2110.6
2014-Jul-17 03:33N 52°32' E 001°53'1111.3
2014-Jul-17 02:33N 52°43' E 001°47'1312.6
2014-Jul-17 01:33N 52°52' E 001°32'1313.3
2014-Jul-17 00:33N 52°60' E 001°14'3213.8
2014-Jul-16 22:12N 53°21' E 000°34'913.3
2014-Jul-16 21:34N 53°27' E 000°24'1211.8
2014-Jul-16 20:34N 53°33' E 000°07'1010.3
2014-Jul-16 19:33N 53°38' W 000°09'8 8.4
2014-Jul-16 18:34N 53°45' W 000°18'0 0.3
2014-Jul-16 17:33N 53°45' W 000°17'0 0.0
2014-Jul-16 16:33N 53°45' W 000°17'0 0.0
2014-Jul-16 15:34N 53°45' W 000°17'0 0.0
2014-Jul-16 14:33N 53°45' W 000°17'0 0.0
2014-Jul-16 13:34N 53°45' W 000°17'0 0.0
2014-Jul-16 12:33N 53°45' W 000°17'0 0.0
2014-Jul-16 11:33N 53°45' W 000°17'0 0.0
2014-Jul-16 10:33N 53°45' W 000°17'0 0.0
2014-Jul-16 09:33N 53°45' W 000°17'0 0.0
2014-Jul-16 08:33N 53°45' W 000°17'0 0.0
2014-Jul-16 07:33N 53°45' W 000°17'0 0.0
2014-Jul-16 06:33N 53°45' W 000°17'0 0.0
2014-Jul-16 05:34N 53°45' W 000°17'0 0.0
2014-Jul-16 04:34N 53°45' W 000°17'0 0.0
2014-Jul-16 03:33N 53°45' W 000°17'0 0.0
2014-Jul-16 02:33N 53°45' W 000°17'0 0.0
2014-Jul-16 01:33N 53°45' W 000°17'0 0.0
2014-Jul-16 00:33N 53°45' W 000°17'0 0.0
2014-Jul-15 23:33N 53°45' W 000°17'0 0.0
2014-Jul-15 22:34N 53°45' W 000°17'0 0.0
2014-Jul-15 21:33N 53°45' W 000°17'0 0.2
2014-Jul-15 20:33N 53°45' W 000°18'1 0.8
2014-Jul-15 19:33N 53°44' W 000°16'0 0.3
2014-Jul-15 18:24N 53°45' W 000°16'0 0.0
2014-Jul-15 17:33N 53°45' W 000°16'0 0.0
2014-Jul-15 16:33N 53°45' W 000°16'0 0.0
2014-Jul-15 15:24N 53°45' W 000°16'0 0.0
2014-Jul-15 14:21N 53°45' W 000°16'0 0.0
2014-Jul-15 13:24N 53°45' W 000°16'0 0.0
2014-Jul-15 12:33N 53°45' W 000°16'0 0.0
2014-Jul-15 11:12N 53°45' W 000°16'0 0.0
2014-Jul-15 10:24N 53°45' W 000°16'0 0.0
2014-Jul-15 09:30N 53°45' W 000°16'0 0.0
2014-Jul-15 08:27N 53°45' W 000°16'0 0.0
2014-Jul-15 07:30N 53°45' W 000°16'0 0.0
2014-Jul-15 06:30N 53°45' W 000°16'1 0.6
2014-Jul-15 05:33N 53°44' W 000°17'6 6.0
2014-Jul-15 04:34N 53°39' W 000°12'1212.2
2014-Jul-15 03:33N 53°34' E 000°06'8 8.0
2014-Jul-15 02:33N 53°36' E 000°19'8 7.9
2014-Jul-15 01:33N 53°42' E 000°29'40611.9
2014-Jul-13 15:32N 57°42' E 010°09'1212.7
2014-Jul-13 14:33N 57°46' E 010°31'1111.4
2014-Jul-13 13:33N 57°45' E 010°52'1313.0
2014-Jul-13 12:33N 57°36' E 011°10'1312.9
2014-Jul-13 11:33N 57°26' E 011°27'1312.9
2014-Jul-13 10:33N 57°14' E 011°35'1312.7
2014-Jul-13 09:33N 57°02' E 011°43'1212.1
2014-Jul-13 08:33N 56°51' E 011°52'2512.4
2014-Jul-13 06:33N 56°29' E 012°14'1312.9
2014-Jul-13 05:33N 56°18' E 012°23'1313.2
2014-Jul-13 04:33N 56°06' E 012°35'1212.4
2014-Jul-13 03:33N 55°55' E 012°44'1212.3
2014-Jul-13 02:33N 55°43' E 012°41'1111.0
2014-Jul-13 01:33N 55°32' E 012°43'1211.7
2014-Jul-13 00:33N 55°20' E 012°40'  
Track history (hours):
 
Tides and Currents Weather Stations Pressure Air Temp Water Temp Dewpoint Dewpoint Depression Visibility Wind Speed Wind Dir Waves Ship Positions

Lammy

Last reported at 2014-Jul-22 21:33 UTC. Time now 2014-Jul-23 01:14 UTC.
Position N 58°59' E 019°32'.

Length 95 m; draft 5.9 m.

Type: Cargo ship. MMSI: 245391000.

Date/timePositionNaut miles runAvg speedWind from/ knotsBaromVisibWave heightAir tempDewpointWater temp
2014-Jul-22 21:33N 58°59' E 019°32'3112.4
2014-Jul-22 19:04N 58°33' E 019°01'612.1
2014-Jul-22 18:33N 58°28' E 018°55'2512.2
2014-Jul-22 16:30N 58°06' E 018°31'1212.1
2014-Jul-22 15:33N 57°56' E 018°20'1212.1
2014-Jul-22 14:33N 57°46' E 018°08'1211.9
2014-Jul-22 13:33N 57°36' E 017°57'1211.9
2014-Jul-22 12:34N 57°25' E 017°46'1212.1
2014-Jul-22 11:33N 57°14' E 017°37'1212.2
2014-Jul-22 10:33N 57°03' E 017°28'1212.5
2014-Jul-22 09:33N 56°52' E 017°18'1212.5
2014-Jul-22 08:33N 56°40' E 017°09'1412.3
2014-Jul-22 07:27N 56°28' E 016°60'1212.1
2014-Jul-22 06:29N 56°17' E 016°53'1111.9
2014-Jul-22 05:33N 56°06' E 016°48'1111.6
2014-Jul-22 04:33N 55°59' E 016°31'1211.6
2014-Jul-22 03:33N 55°53' E 016°14'1211.4
2014-Jul-22 02:31N 55°48' E 015°55'1111.3
2014-Jul-22 01:33N 55°42' E 015°38'1211.6
2014-Jul-22 00:33N 55°36' E 015°21'1211.6
2014-Jul-21 23:33N 55°30' E 015°03'1211.8
2014-Jul-21 22:33N 55°24' E 014°45'1211.7
2014-Jul-21 21:33N 55°16' E 014°30'1211.8
2014-Jul-21 20:33N 55°08' E 014°16'312.1
2014-Jul-21 20:18N 55°05' E 014°13'911.9
2014-Jul-21 19:33N 55°00' E 013°60'1411.7
2014-Jul-21 18:22N 54°55' E 013°38'1011.7
2014-Jul-21 17:32N 54°51' E 013°22'1111.2
2014-Jul-21 16:33N 54°46' E 013°05'1111.3
2014-Jul-21 15:33N 54°41' E 012°47'1111.3
2014-Jul-21 14:33N 54°35' E 012°30'1110.8
2014-Jul-21 13:33N 54°29' E 012°15'10 9.7
2014-Jul-21 12:33N 54°25' E 012°00'1110.5
2014-Jul-21 11:33N 54°26' E 011°42'1110.7
2014-Jul-21 10:33N 54°30' E 011°25'1010.2
2014-Jul-21 09:33N 54°34' E 011°09'1111.3
2014-Jul-21 08:34N 54°33' E 010°49'47 7.5
2014-Jul-21 02:21N 54°14' E 009°36'10 8.5
2014-Jul-21 01:09N 54°09' E 009°21'6 8.5
2014-Jul-21 00:28N 54°03' E 009°18'7 7.8
2014-Jul-20 23:33N 53°56' E 009°13'4 4.0
2014-Jul-20 22:33N 53°54' E 009°09'1 1.3
2014-Jul-20 21:32N 53°53' E 009°07'9 9.3
2014-Jul-20 20:33N 53°50' E 008°52'1111.0
2014-Jul-20 19:33N 53°57' E 008°37'1211.5
2014-Jul-20 18:33N 53°59' E 008°18'6613.1
2014-Jul-20 13:31N 53°45' E 006°29'1313.6
2014-Jul-20 12:33N 53°41' E 006°07'1313.5
2014-Jul-20 11:34N 53°37' E 005°46'1313.4
2014-Jul-20 10:33N 53°33' E 005°24'1313.2
2014-Jul-20 09:34N 53°29' E 005°03'2511.8
2014-Jul-20 07:25N 53°11' E 004°33'2311.8
2014-Jul-20 05:25N 52°51' E 004°13'1011.4
2014-Jul-20 04:31N 52°43' E 004°02'7111.5
2014-Jul-19 22:23N 51°50' E 002°44'2413.3
2014-Jul-19 20:33N 51°31' E 002°20'1313.5
2014-Jul-19 19:34N 51°20' E 002°09'1414.0
2014-Jul-19 18:33N 51°09' E 001°54'1514.8
2014-Jul-19 17:33N 50°59' E 001°37'3413.9
2014-Jul-19 15:06N 50°34' E 001°01'713.2
2014-Jul-19 14:34N 50°31' E 000°50'1713.9
2014-Jul-19 13:19N 50°26' E 000°24'80 2.0
2014-Jul-17 20:32N 50°24' W 001°41'1313.3
2014-Jul-17 19:34N 50°25' W 001°21'5814.4
2014-Jul-17 15:32N 50°35' E 000°09'1212.7
2014-Jul-17 14:33N 50°38' E 000°28'1211.8
2014-Jul-17 13:33N 50°43' E 000°44'1212.2
2014-Jul-17 12:33N 50°50' E 000°60'1914.4
2014-Jul-17 11:14N 51°03' E 001°23'1116.8
2014-Jul-17 10:33N 51°11' E 001°35'1515.2
2014-Jul-17 09:34N 51°25' E 001°43'1313.2
2014-Jul-17 08:33N 51°39' E 001°45'1212.0
2014-Jul-17 07:33N 51°51' E 001°44'1110.8
2014-Jul-17 06:33N 52°01' E 001°47'1010.3
2014-Jul-17 05:33N 52°11' E 001°49'2110.6
2014-Jul-17 03:33N 52°32' E 001°53'1111.3
2014-Jul-17 02:33N 52°43' E 001°47'1312.6
2014-Jul-17 01:33N 52°52' E 001°32'1313.3
2014-Jul-17 00:33N 52°60' E 001°14'3213.8
2014-Jul-16 22:12N 53°21' E 000°34'913.3
2014-Jul-16 21:34N 53°27' E 000°24'1211.8
2014-Jul-16 20:34N 53°33' E 000°07'1010.3
2014-Jul-16 19:33N 53°38' W 000°09'8 8.4
2014-Jul-16 18:34N 53°45' W 000°18'0 0.3
2014-Jul-16 17:33N 53°45' W 000°17'0 0.0
2014-Jul-16 16:33N 53°45' W 000°17'0 0.0
2014-Jul-16 15:34N 53°45' W 000°17'0 0.0
2014-Jul-16 14:33N 53°45' W 000°17'0 0.0
2014-Jul-16 13:34N 53°45' W 000°17'0 0.0
2014-Jul-16 12:33N 53°45' W 000°17'0 0.0
2014-Jul-16 11:33N 53°45' W 000°17'0 0.0
2014-Jul-16 10:33N 53°45' W 000°17'0 0.0
2014-Jul-16 09:33N 53°45' W 000°17'0 0.0
2014-Jul-16 08:33N 53°45' W 000°17'0 0.0
2014-Jul-16 07:33N 53°45' W 000°17'0 0.0
2014-Jul-16 06:33N 53°45' W 000°17'0 0.0
2014-Jul-16 05:34N 53°45' W 000°17'0 0.0
2014-Jul-16 04:34N 53°45' W 000°17'0 0.0
2014-Jul-16 03:33N 53°45' W 000°17'0 0.0
2014-Jul-16 02:33N 53°45' W 000°17'0 0.0
2014-Jul-16 01:33N 53°45' W 000°17'0 0.0
2014-Jul-16 00:33N 53°45' W 000°17'0 0.0
2014-Jul-15 23:33N 53°45' W 000°17'0 0.0
2014-Jul-15 22:34N 53°45' W 000°17'0 0.0
2014-Jul-15 21:33N 53°45' W 000°17'0 0.2
2014-Jul-15 20:33N 53°45' W 000°18'1 0.8
2014-Jul-15 19:33N 53°44' W 000°16'0 0.3
2014-Jul-15 18:24N 53°45' W 000°16'0 0.0
2014-Jul-15 17:33N 53°45' W 000°16'0 0.0
2014-Jul-15 16:33N 53°45' W 000°16'0 0.0
2014-Jul-15 15:24N 53°45' W 000°16'0 0.0
2014-Jul-15 14:21N 53°45' W 000°16'0 0.0
2014-Jul-15 13:24N 53°45' W 000°16'0 0.0
2014-Jul-15 12:33N 53°45' W 000°16'0 0.0
2014-Jul-15 11:12N 53°45' W 000°16'0 0.0
2014-Jul-15 10:24N 53°45' W 000°16'0 0.0
2014-Jul-15 09:30N 53°45' W 000°16'0 0.0
2014-Jul-15 08:27N 53°45' W 000°16'0 0.0
2014-Jul-15 07:30N 53°45' W 000°16'0 0.0
2014-Jul-15 06:30N 53°45' W 000°16'1 0.6
2014-Jul-15 05:33N 53°44' W 000°17'6 6.0
2014-Jul-15 04:34N 53°39' W 000°12'1212.2
2014-Jul-15 03:33N 53°34' E 000°06'8 8.0
2014-Jul-15 02:33N 53°36' E 000°19'8 7.9
2014-Jul-15 01:33N 53°42' E 000°29'40611.9
2014-Jul-13 15:32N 57°42' E 010°09'1212.7
2014-Jul-13 14:33N 57°46' E 010°31'1111.4
2014-Jul-13 13:33N 57°45' E 010°52'1313.0
2014-Jul-13 12:33N 57°36' E 011°10'1312.9
2014-Jul-13 11:33N 57°26' E 011°27'1312.9
2014-Jul-13 10:33N 57°14' E 011°35'1312.7
2014-Jul-13 09:33N 57°02' E 011°43'1212.1
2014-Jul-13 08:33N 56°51' E 011°52'2512.4
2014-Jul-13 06:33N 56°29' E 012°14'1312.9
2014-Jul-13 05:33N 56°18' E 012°23'1313.2
2014-Jul-13 04:33N 56°06' E 012°35'1212.4
2014-Jul-13 03:33N 55°55' E 012°44'1212.3
2014-Jul-13 02:33N 55°43' E 012°41'1111.0
2014-Jul-13 01:33N 55°32' E 012°43'1211.7
2014-Jul-13 00:33N 55°20' E 012°40'  

Dump ship's entire track history